150P/LONEOS (2024)

Japanese version
Home page
Updated on January 31, 2024

---------------------------------------------------------------------

* Profile

* Pictures

* Orbital Elements

Epoch 2023 Sept. 13.0 TT = JDT 2460200.5
T 2024 Mar. 12.43645 TT                                 Rudenko
q   1.7457277            (2000.0)            P               Q
n   0.12945489     Peri.  246.09692     -0.88075312     -0.35104475
a   3.8701139      Node   272.05946     +0.45860891     -0.79964955
e   0.5489209      Incl.   18.54659     -0.11811777     -0.48716340
P   7.61
>From 877 observations 1978 Mar. 6-2024 Jan. 23, mean residual 0".5.

* Finding Charts

* Magnitudes Graph

        H = 14.5  G = 0.15

---------------------------------------------------------------------

The orbital elements are published on M.P.E.C. 2024-B140.
The charts are made with StellaNavigator Ver.10 (AstroArts).
The magnitudes graphs are made with Comet for Windows.

---------------------------------------------------------------------

Copyright(C) Seiichi Yoshida (comet@aerith.net). All rights reserved.